Wetterdaten: aktuell Sonntag, 13.06.2021 04:15
Datum Zeit Temp. I. Temp. A Licht Temp. tief Temp. Heiz Temp. Boden Temp. Windm Windchill X Feuchte I. Feuchte A. Luftdruck Regen Wind Richtung Richtung Sonnenschein Windben
13.06.2021 04:15 24,0 C 10,7 C 13,8 C 0,0 C 33,5 C 20,2 C 12,3 C 12,3 C 51 % 79 % 1018,4 hPa 0,0 l/m 0,0 km/h (0 Bft) N 360 0 min 0,0 km/h (0 Bft)
13.06.2021 04:10 24,0 C 10,8 C 13,5 C 0,0 C 33,7 C 20,3 C 12,3 C 12,3 C 51 % 79 % 1018,2 hPa 0,0 l/m 0,0 km/h (0 Bft) N 360 0 min 0,0 km/h (0 Bft)
13.06.2021 04:05 24,0 C 10,9 C 13,2 C 0,0 C 33,7 C 20,3 C 12,3 C 12,3 C 51 % 78 % 1018,2 hPa 0,0 l/m 0,0 km/h (0 Bft) N 360 0 min 0,0 km/h (0 Bft)
13.06.2021 04:00 24,0 C 11,1 C 13,1 C 0,0 C 33,9 C 20,3 C 12,3 C 12,3 C 51 % 78 % 1018,2 hPa 0,0 l/m 0,0 km/h (0 Bft) N 360 0 min 0,0 km/h (0 Bft)
13.06.2021 03:55 24,0 C 11,1 C 13,0 C 0,0 C 33,9 C 20,5 C 12,3 C 12,3 C 51 % 78 % 1018,2 hPa 0,0 l/m 0,0 km/h (0 Bft) N 360 0 min 0,0 km/h (0 Bft)
13.06.2021 03:50 24,0 C 11,1 C 13,0 C 0,0 C 34,0 C 20,4 C 12,3 C 12,3 C 51 % 78 % 1018,2 hPa 0,0 l/m 0,0 km/h (0 Bft) N 360 0 min 0,0 km/h (0 Bft)
13.06.2021 03:45 24,0 C 11,1 C 12,9 C 0,0 C 34,1 C 20,5 C 12,3 C 12,3 C 51 % 78 % 1018,2 hPa 0,0 l/m 0,0 km/h (0 Bft) N 360 0 min 0,0 km/h (0 Bft)
13.06.2021 03:40 24,0 C 11,1 C 12,9 C 0,0 C 34,2 C 20,7 C 12,3 C 12,3 C 51 % 78 % 1018,2 hPa 0,0 l/m 0,0 km/h (0 Bft) N 360 0 min 0,0 km/h (0 Bft)
13.06.2021 03:35 24,0 C 11,2 C 12,9 C 0,0 C 34,3 C 20,7 C 12,3 C 12,3 C 51 % 78 % 1018,2 hPa 0,0 l/m 0,0 km/h (0 Bft) N 360 0 min 0,0 km/h (0 Bft)
13.06.2021 03:30 24,0 C 11,4 C 12,9 C 0,0 C 34,4 C 20,7 C 12,3 C 12,3 C 51 % 77 % 1017,9 hPa 0,0 l/m 0,0 km/h (0 Bft) N 360 0 min 0,0 km/h (0 Bft)
13.06.2021 03:25 24,0 C 11,5 C 12,9 C 0,0 C 34,5 C 20,8 C 12,3 C 12,3 C 51 % 77 % 1017,9 hPa 0,0 l/m 0,0 km/h (0 Bft) N 360 0 min 0,0 km/h (0 Bft)
13.06.2021 03:20 24,0 C 11,6 C 12,9 C 0,0 C 34,6 C 20,8 C 12,3 C 12,3 C 51 % 76 % 1017,9 hPa 0,0 l/m 0,0 km/h (0 Bft) N 360 0 min 0,0 km/h (0 Bft)
13.06.2021 03:15 24,0 C 11,9 C 12,9 C 0,0 C 34,7 C 20,9 C 12,3 C 12,3 C 51 % 76 % 1017,9 hPa 0,0 l/m 0,0 km/h (0 Bft) N 360 0 min 0,0 km/h (0 Bft)
13.06.2021 03:10 24,1 C 11,9 C 12,9 C 0,0 C 34,8 C 21,0 C 12,3 C 12,3 C 51 % 76 % 1018,1 hPa 0,0 l/m 0,0 km/h (0 Bft) N 360 0 min 0,0 km/h (0 Bft)
13.06.2021 03:05 24,1 C 12,0 C 12,9 C 0,0 C 34,9 C 21,1 C 12,3 C 12,3 C 51 % 77 % 1018,1 hPa 0,0 l/m 0,0 km/h (0 Bft) N 360 0 min 0,0 km/h (0 Bft)
13.06.2021 03:00 24,1 C 12,0 C 12,9 C 0,0 C 35,0 C 21,1 C 12,3 C 12,3 C 51 % 77 % 1018,1 hPa 0,0 l/m 0,0 km/h (0 Bft) N 360 0 min 0,0 km/h (0 Bft)
13.06.2021 02:55 24,1 C 12,1 C 12,9 C 0,0 C 35,1 C 21,2 C 12,3 C 12,3 C 51 % 77 % 1018,1 hPa 0,0 l/m 0,0 km/h (0 Bft) N 360 0 min 0,0 km/h (0 Bft)
13.06.2021 02:50 24,0 C 12,1 C 12,9 C 0,0 C 35,2 C 21,2 C 12,3 C 12,3 C 51 % 76 % 1018,0 hPa 0,0 l/m 0,0 km/h (0 Bft) N 360 0 min 0,0 km/h (0 Bft)
13.06.2021 02:45 24,1 C 12,3 C 12,9 C 0,0 C 35,3 C 21,2 C 12,3 C 12,3 C 51 % 76 % 1018,0 hPa 0,0 l/m 0,0 km/h (0 Bft) N 360 0 min 0,0 km/h (0 Bft)
13.06.2021 02:40 24,1 C 12,5 C 12,9 C 0,0 C 35,5 C 21,3 C 12,4 C 12,3 C 51 % 75 % 1018,0 hPa 0,0 l/m 0,0 km/h (0 Bft) N 360 0 min 0,0 km/h (0 Bft)
13.06.2021 02:35 24,1 C 12,6 C 12,9 C 0,0 C 35,6 C 21,5 C 12,5 C 12,3 C 51 % 75 % 1018,0 hPa 0,0 l/m 0,0 km/h (0 Bft) N 360 0 min 0,0 km/h (0 Bft)
13.06.2021 02:30 24,1 C 12,7 C 12,9 C 0,0 C 35,6 C 21,4 C 12,6 C 12,3 C 51 % 75 % 1017,7 hPa 0,0 l/m 0,0 km/h (0 Bft) N 360 0 min 0,0 km/h (0 Bft)
13.06.2021 02:25 24,1 C 12,8 C 12,9 C 0,0 C 35,9 C 21,5 C 12,6 C 12,3 C 51 % 74 % 1017,7 hPa 0,0 l/m 0,0 km/h (0 Bft) N 360 0 min 0,0 km/h (0 Bft)
13.06.2021 02:20 24,1 C 13,0 C 12,9 C 0,0 C 35,9 C 21,6 C 12,8 C 12,3 C 51 % 74 % 1017,7 hPa 0,0 l/m 0,0 km/h (0 Bft) N 360 0 min 0,0 km/h (0 Bft)
13.06.2021 02:15 24,1 C 13,1 C 12,9 C 0,0 C 36,0 C 21,6 C 12,8 C 12,3 C 51 % 74 % 1017,7 hPa 0,0 l/m 0,0 km/h (0 Bft) N 360 0 min 0,0 km/h (0 Bft)
13.06.2021 02:10 24,1 C 13,3 C 12,9 C 0,0 C 36,1 C 21,7 C 13,0 C 12,3 C 51 % 74 % 1017,6 hPa 0,0 l/m 0,0 km/h (0 Bft) N 360 0 min 0,0 km/h (0 Bft)
13.06.2021 02:05 24,1 C 13,5 C 12,9 C 0,0 C 36,3 C 21,9 C 13,1 C 12,3 C 51 % 74 % 1017,6 hPa 0,0 l/m 0,0 km/h (0 Bft) N 360 0 min 0,0 km/h (0 Bft)
13.06.2021 02:00 24,1 C 13,6 C 13,0 C 0,0 C 36,4 C 21,9 C 13,2 C 12,3 C 51 % 74 % 1017,6 hPa 0,0 l/m 0,0 km/h (0 Bft) N 360 0 min 0,0 km/h (0 Bft)
13.06.2021 01:55 24,1 C 13,6 C 13,0 C 0,0 C 36,5 C 21,9 C 13,2 C 12,3 C 51 % 74 % 1017,6 hPa 0,0 l/m 0,0 km/h (0 Bft) N 360 0 min 0,0 km/h (0 Bft)
13.06.2021 01:50 24,1 C 13,6 C 13,0 C 0,0 C 36,6 C 22,0 C 13,2 C 12,3 C 51 % 75 % 1017,5 hPa 0,0 l/m 0,0 km/h (0 Bft) N 360 0 min 0,0 km/h (0 Bft)
13.06.2021 01:45 24,1 C 13,6 C 13,0 C 0,0 C 36,8 C 22,0 C 13,2 C 12,3 C 51 % 75 % 1017,5 hPa 0,0 l/m 0,0 km/h (0 Bft) N 360 0 min 0,0 km/h (0 Bft)
13.06.2021 01:40 24,2 C 13,5 C 13,0 C 0,0 C 36,9 C 22,1 C 13,1 C 12,3 C 51 % 76 % 1017,5 hPa 0,0 l/m 0,0 km/h (0 Bft) N 360 0 min 0,0 km/h (0 Bft)
13.06.2021 01:35 24,2 C 13,5 C 13,0 C 0,0 C 37,1 C 22,2 C 13,1 C 12,3 C 51 % 76 % 1017,5 hPa 0,0 l/m 0,0 km/h (0 Bft) N 360 0 min 0,0 km/h (0 Bft)
13.06.2021 01:30 24,2 C 13,4 C 13,0 C 0,0 C 37,1 C 22,3 C 13,0 C 12,3 C 51 % 76 % 1017,3 hPa 0,0 l/m 0,0 km/h (0 Bft) N 360 0 min 0,0 km/h (0 Bft)
13.06.2021 01:25 24,2 C 13,6 C 13,0 C 0,0 C 37,3 C 22,3 C 13,2 C 12,3 C 51 % 75 % 1017,3 hPa 0,0 l/m 0,0 km/h (0 Bft) N 360 0 min 0,0 km/h (0 Bft)
13.06.2021 01:20 24,2 C 13,7 C 13,0 C 0,0 C 37,5 C 22,4 C 13,2 C 12,3 C 51 % 75 % 1017,3 hPa 0,0 l/m 0,0 km/h (0 Bft) N 360 0 min 0,0 km/h (0 Bft)
13.06.2021 01:15 24,2 C 13,7 C 13,0 C 0,0 C 37,7 C 22,4 C 13,2 C 12,3 C 51 % 74 % 1017,3 hPa 0,0 l/m 0,0 km/h (0 Bft) N 360 0 min 0,0 km/h (0 Bft)
13.06.2021 01:10 24,2 C 13,8 C 13,0 C 0,0 C 37,7 C 22,5 C 13,3 C 12,3 C 51 % 74 % 1017,1 hPa 0,0 l/m 0,0 km/h (0 Bft) N 360 0 min 0,0 km/h (0 Bft)
13.06.2021 01:05 24,2 C 13,7 C 13,0 C 0,0 C 37,8 C 22,6 C 13,2 C 12,3 C 51 % 75 % 1017,1 hPa 0,0 l/m 0,0 km/h (0 Bft) N 360 0 min 0,0 km/h (0 Bft)
13.06.2021 01:00 24,2 C 13,6 C 13,0 C 0,0 C 38,0 C 22,7 C 13,2 C 12,3 C 51 % 75 % 1017,1 hPa 0,0 l/m 0,0 km/h (0 Bft) N 360 0 min 0,0 km/h (0 Bft)
13.06.2021 00:55 24,2 C 13,6 C 13,0 C 0,0 C 38,1 C 22,7 C 13,2 C 12,3 C 51 % 75 % 1017,1 hPa 0,0 l/m 0,0 km/h (0 Bft) N 360 0 min 0,0 km/h (0 Bft)
13.06.2021 00:50 24,2 C 13,6 C 13,0 C 0,0 C 38,2 C 22,8 C 13,2 C 12,3 C 51 % 75 % 1017,2 hPa 0,0 l/m 0,0 km/h (0 Bft) N 360 0 min 0,0 km/h (0 Bft)
13.06.2021 00:45 24,2 C 13,6 C 13,0 C 0,0 C 38,4 C 22,8 C 13,2 C 12,3 C 51 % 75 % 1017,2 hPa 0,0 l/m 0,0 km/h (0 Bft) N 360 0 min 0,0 km/h (0 Bft)
13.06.2021 00:40 24,2 C 13,7 C 13,0 C 0,0 C 38,5 C 22,9 C 13,2 C 12,3 C 51 % 75 % 1017,2 hPa 0,0 l/m 0,0 km/h (0 Bft) N 360 0 min 0,0 km/h (0 Bft)
13.06.2021 00:35 24,2 C 13,7 C 13,0 C 0,0 C 38,8 C 23,0 C 13,2 C 12,3 C 51 % 75 % 1017,2 hPa 0,0 l/m 0,0 km/h (0 Bft) N 360 0 min 0,0 km/h (0 Bft)
13.06.2021 00:30 24,2 C 13,7 C 13,0 C 0,0 C 38,9 C 23,0 C 13,2 C 12,3 C 51 % 74 % 1016,7 hPa 0,0 l/m 0,0 km/h (0 Bft) N 360 0 min 0,0 km/h (0 Bft)
13.06.2021 00:25 24,2 C 13,9 C 13,0 C 0,0 C 39,0 C 23,1 C 13,4 C 12,3 C 51 % 74 % 1016,7 hPa 0,0 l/m 0,0 km/h (0 Bft) N 360 0 min 0,0 km/h (0 Bft)
13.06.2021 00:20 24,2 C 13,9 C 13,0 C 0,0 C 39,2 C 23,2 C 13,4 C 12,3 C 51 % 74 % 1016,7 hPa 0,0 l/m 0,0 km/h (0 Bft) N 360 0 min 0,0 km/h (0 Bft)
13.06.2021 00:15 24,2 C 13,8 C 13,0 C 0,0 C 39,4 C 23,2 C 13,3 C 12,3 C 51 % 74 % 1016,7 hPa 0,0 l/m 0,0 km/h (0 Bft) N 360 0 min 0,0 km/h (0 Bft)
13.06.2021 00:09 24,2 C 13,8 C 13,0 C 0,0 C 39,5 C 23,3 C 13,3 C 12,3 C 51 % 74 % 1016,7 hPa 0,0 l/m 0,0 km/h (0 Bft) N 360 0 min 0,0 km/h (0 Bft)
13.06.2021 00:08 24,2 C 13,9 C 13,0 C 0,0 C 39,8 C 23,5 C 13,4 C 12,3 C 51 % 74 % 1016,7 hPa 0,0 l/m 0,0 km/h (0 Bft) N 360 0 min 0,0 km/h (0 Bft)
13.06.2021 00:05 24,2 C 13,9 C 13,0 C 0,0 C 39,8 C 23,5 C 13,4 C 12,3 C 51 % 74 % 1016,7 hPa 0,0 l/m 0,0 km/h (0 Bft) N 360 0 min 0,0 km/h (0 Bft)
13.06.2021 00:00 24,2 C 13,9 C 13,0 C 0,0 C 39,9 C 23,5 C 13,4 C 12,3 C 51 % 73 % 1016,7 hPa 0,0 l/m 0,0 km/h (0 Bft) N 360 0 min 0,0 km/h (0 Bft)
_ Min-Zeit 04:15 04:15 03:45 04:15 04:15 04:15 04:15 04:15 04:15 00:00 00:30 - 04:15 - - - 04:15
Minimum _ 24,0 C 10,7 C 12,9 C 0,0 C 33,5 C 20,2 C 12,3 C 12,3 C 51 % 73 % 1016,7 hPa - 0,0 km/h (0 Bft) - - - 0,0 km/h (0 Bft)
_ Max-Zeit 01:40 00:25 04:15 04:15 00:00 00:08 00:25 04:15 04:15 04:15 04:15 04:15 04:15 - - 04:15 04:15
Maximum _ 24,2 C 13,9 C 13,8 C 0,0 C 39,9 C 23,5 C 13,4 C 12,3 C 51 % 79 % 1018,4 hPa 0,0 l/m 0,0 km/h
N (0 Bft)
- - 0 min 0,0 km/h
N (0 Bft)
Durchschnitt _ 24,1 C 12,8 C 13,0 C 0,0 C 36,4 C 21,8 C 12,8 C 12,3 C 51 % 76 % 1017,6 hPa #0,0 l/m 0,0 km/h (0 Bft) - - - #0 min. 0,0 km/h (0 Bft)